"Period start","avg(HW err(1)/warn(2) (#))","avg(Visibility (m))","avg(Weather code (#))","avg(Precip intensity (mm/h))","min(HW err(1)/warn(2) (#))","max(HW err(1)/warn(2) (#))","std(HW err(1)/warn(2) (#))","med(HW err(1)/warn(2) (#))","min(Visibility (m))","max(Visibility (m))","std(Visibility (m))","med(Visibility (m))","min(Weather code (#))","max(Weather code (#))","std(Weather code (#))","med(Weather code (#))","min(Precip intensity (mm/h))","max(Precip intensity (mm/h))","std(Precip intensity (mm/h))","med(Precip intensity (mm/h))"
2013-09-18 00:00:00,2,9676,71,1.36,2,2,0,2,1624,24297,7885,7268,71,71,0,71,0.00,5.85,1.77,0.42
2013-09-18 00:10:00,2,11697,71,0.88,2,2,0,2,1937,21974,6248,12118,71,71,0,71,0.00,5.35,1.59,0.22
2013-09-18 00:20:00,2,5926,71,0.86,2,2,0,2,2340,9695,2679,5904,71,71,0,71,0.05,2.60,0.83,0.65
2013-09-18 00:30:00,2,8133,71,0.27,2,2,0,2,6395,11121,1474,7920,71,71,0,71,0.10,0.70,0.17,0.23
2013-09-18 00:40:00,2,7528,59,0.34,2,2,0,2,4641,11013,2023,7206,41,71,10,61,0.10,0.50,0.15,0.38
2013-09-18 00:50:00,2,7718,74,0.17,2,2,0,2,6184,9652,1046,7666,71,77,3,74,0.10,0.30,0.07,0.15
2013-09-18 01:00:00,2,6470,77,0.24,2,2,0,2,4894,8149,1191,5962,77,77,0,77,0.10,0.55,0.13,0.20
2013-09-18 01:10:00,2,8401,75,0.09,2,2,0,2,6864,9915,1018,8443,71,77,3,77,0.00,0.20,0.06,0.08
2013-09-18 01:20:00,2,6204,71,0.25,2,2,0,2,4462,10818,1645,5900,71,71,0,71,0.10,0.40,0.11,0.25
2013-09-18 01:30:00,2,5433,71,0.35,2,2,0,2,3989,6497,681,5544,71,71,0,71,0.15,0.55,0.14,0.35
2013-09-18 01:40:00,2,5708,71,0.72,2,2,0,2,3442,9297,1779,5496,71,71,0,71,0.15,1.10,0.30,0.80
2013-09-18 01:50:00,2,9889,76,0.15,2,2,0,2,6131,16183,3143,8390,71,77,2,77,0.00,0.50,0.16,0.10
2013-09-18 02:00:00,2,13683,76,0.02,2,2,0,2,4090,21804,5761,14083,71,77,2,77,0.00,0.05,0.02,0.00
2013-09-18 02:10:00,2,11585,73,0.15,2,2,0,2,4505,19367,5208,9041,71,77,3,71,0.00,0.55,0.15,0.10
2013-09-18 02:20:00,2,12799,73,0.39,2,2,0,2,3881,27511,7556,9130,71,77,3,71,0.05,1.60,0.43,0.28
2013-09-18 02:30:00,2,10529,72,0.33,2,2,0,2,5326,18001,4165,9498,71,74,1,71,0.05,0.70,0.24,0.25
2013-09-18 02:40:00,2,5272,71,0.52,2,2,0,2,3943,7855,1433,4690,71,71,0,71,0.20,1.05,0.23,0.47
2013-09-18 02:50:00,2,5331,71,0.46,2,2,0,2,4087,7779,1100,5359,71,71,0,71,0.10,1.15,0.34,0.35
2013-09-18 03:00:00,2,8700,67,0.48,2,2,0,2,6717,13155,2130,7904,61,71,5,71,0.25,0.90,0.20,0.47
2013-09-18 03:10:00,2,4289,71,1.62,2,2,0,2,1411,9667,2445,3834,71,71,0,71,0.10,6.00,1.73,0.93
2013-09-18 03:20:00,2,6050,71,0.88,2,2,0,2,2590,9679,2040,6187,71,71,0,71,0.25,2.95,0.77,0.53
2013-09-18 03:30:00,2,11010,71,0.82,2,2,0,2,1644,27231,8386,7257,71,71,0,71,0.00,3.45,1.31,0.15
2013-09-18 03:40:00,2,21282,61,0.20,2,2,0,2,5307,32328,8928,23996,61,61,0,61,0.00,0.70,0.23,0.08
2013-09-18 03:50:00,2,13252,67,0.80,2,2,0,2,2238,33945,9519,11904,61,71,5,71,0.05,2.90,1.07,0.17
2013-09-18 04:00:00,2,13697,63,0.28,2,2,0,2,6659,40120,9971,9866,61,71,4,61,0.10,0.50,0.13,0.25
2013-09-18 04:10:00,2,18089,76,0.11,2,2,0,2,11403,27179,4951,16023,71,77,2,77,0.00,0.25,0.09,0.08
2013-09-18 04:20:00,2,7268,73,1.08,2,2,0,2,1661,19453,6476,3316,71,77,3,71,0.00,3.65,1.30,0.65
2013-09-18 04:30:00,2,4104,71,0.89,2,2,0,2,1989,5189,911,4211,71,71,0,71,0.20,4.20,1.13,0.47
2013-09-18 04:40:00,2,4782,71,0.73,2,2,0,2,3277,6646,875,4682,71,71,0,71,0.40,1.45,0.29,0.73
2013-09-18 04:50:00,2,4020,71,0.90,2,2,0,2,3092,7290,1216,3546,71,71,0,71,0.30,1.55,0.33,0.88
2013-09-18 05:00:00,2,14011,73,0.15,2,2,0,2,5587,23248,6350,13964,71,77,3,71,0.05,0.40,0.10,0.15
2013-09-18 05:10:00,2,10769,69,0.13,2,2,0,2,5568,19844,5104,8194,41,77,14,77,0.00,0.50,0.13,0.10
2013-09-18 05:20:00,2,3508,72,1.36,2,2,0,2,1315,6021,1587,3611,71,77,2,71,0.40,3.50,1.05,0.75
2013-09-18 05:30:00,2,1447,71,6.24,2,2,0,2,1023,2572,462,1291,71,71,0,71,2.00,10.20,2.41,5.65
2013-09-18 05:40:00,2,1594,71,4.28,2,2,0,2,1154,2566,403,1460,71,71,0,71,1.55,8.25,1.70,4.28
2013-09-18 05:50:00,2,2776,71,1.82,2,2,0,2,2227,3465,341,2672,71,71,0,71,0.90,2.90,0.60,1.77
2013-09-18 06:00:00,2,3026,71,1.54,2,2,0,2,2495,3738,383,2963,71,71,0,71,0.85,2.30,0.43,1.58
2013-09-18 06:10:00,2,5030,71,0.52,2,2,0,2,3981,6170,757,5166,71,71,0,71,0.20,0.85,0.18,0.50
2013-09-18 06:20:00,2,4459,71,0.97,2,2,0,2,2397,7410,1428,4491,71,71,0,71,0.25,2.30,0.70,0.68
2013-09-18 06:30:00,2,4446,71,1.03,2,2,0,2,2696,5781,1060,4720,71,71,0,71,0.50,2.40,0.56,0.82
2013-09-18 06:40:00,2,3162,71,1.75,2,2,0,2,1216,5228,1325,3250,71,71,0,71,0.30,5.35,1.61,0.90
2013-09-18 06:50:00,2,1493,71,4.22,2,2,0,2,1000,2741,504,1335,71,71,0,71,0.75,6.05,1.70,4.82
2013-09-18 07:00:00,2,3040,71,1.27,2,2,0,2,1800,5505,1162,2895,71,71,0,71,0.40,2.60,0.68,1.07
2013-09-18 07:10:00,2,4381,71,0.60,2,2,0,2,2866,6477,1088,4493,71,71,0,71,0.25,1.05,0.25,0.57
2013-09-18 07:20:00,2,4555,71,0.57,2,2,0,2,3841,5354,428,4531,71,71,0,71,0.35,0.85,0.14,0.55
2013-09-18 07:30:00,2,3602,73,0.58,2,2,0,2,2340,5985,1368,2832,71,77,3,71,0.15,1.45,0.37,0.42
2013-09-18 07:40:00,2,1496,71,2.71,2,2,0,2,677,2033,326,1503,71,71,0,71,0.45,4.55,1.33,2.78
2013-09-18 07:50:00,2,1346,71,3.58,2,2,0,2,971,1855,246,1336,71,71,0,71,2.15,5.75,0.97,3.42
2013-09-18 08:00:00,2,1579,71,2.08,2,2,0,2,1024,2569,460,1534,71,71,0,71,1.25,3.05,0.58,2.12
2013-09-18 08:10:00,2,2701,71,2.11,2,2,0,2,1098,6668,1484,2326,71,71,0,71,1.10,4.30,1.04,1.70
2013-09-18 08:20:00,2,6097,71,1.13,2,2,0,2,2754,17959,4452,4213,71,71,0,71,0.10,2.40,0.74,0.95
2013-09-18 08:30:00,2,17345,61,0.51,2,2,0,2,9581,28955,6872,14550,41,74,14,67,0.15,1.05,0.31,0.45
2013-09-18 08:40:00,2,26785,47,0.14,2,2,0,2,16401,39469,6896,25590,41,71,12,41,0.00,0.40,0.15,0.05
2013-09-18 08:50:00,2,13021,76,0.04,2,2,0,2,8218,21988,4520,11871,71,77,2,77,0.00,0.20,0.06,0.00
2013-09-18 09:00:00,2,22317,74,0.01,2,2,0,2,12984,35319,7322,20769,71,77,3,74,0.00,0.05,0.02,0.00
2013-09-18 09:10:00,2,25806,29,0.17,2,2,0,2,1875,46939,17832,26335,0,77,36,0,0.00,1.15,0.37,0.00
2013-09-18 09:20:00,2,6605,72,0.11,2,2,0,2,3189,10969,2344,5876,71,77,2,71,0.00,0.40,0.11,0.08
2013-09-18 09:30:00,2,7012,72,0.11,2,2,0,2,3557,13181,3327,5256,71,77,2,71,0.00,0.20,0.06,0.15
2013-09-18 09:40:00,2,8063,73,0.09,2,2,0,2,5528,9564,1194,8336,71,77,3,71,0.05,0.30,0.08,0.05
2013-09-18 09:50:00,2,6657,71,0.13,2,2,0,2,5197,8105,834,6704,71,71,0,71,0.05,0.30,0.08,0.12
2013-09-18 10:00:00,2,7735,75,0.07,2,2,0,2,4351,11046,2592,8198,71,77,3,77,0.00,0.15,0.04,0.05
2013-09-18 10:10:00,2,4374,73,0.22,2,2,0,2,3104,5752,718,4374,71,77,3,71,0.10,0.45,0.13,0.17
2013-09-18 10:20:00,2,3178,71,0.55,2,2,0,2,2605,3915,393,3124,71,71,0,71,0.30,0.85,0.18,0.50
2013-09-18 10:30:00,2,3737,71,0.54,2,2,0,2,3234,4287,290,3693,71,71,0,71,0.25,1.40,0.35,0.38
2013-09-18 10:40:00,2,5581,71,0.29,2,2,0,2,3513,7045,1216,5873,71,71,0,71,0.10,0.70,0.19,0.23
2013-09-18 10:50:00,2,8162,72,0.11,2,2,0,2,6305,11354,1684,7410,71,77,2,71,0.05,0.25,0.06,0.10
2013-09-18 11:00:00,2,5345,73,0.20,2,2,0,2,3678,6701,1008,5654,71,77,3,71,0.15,0.30,0.05,0.20
2013-09-18 11:10:00,2,3281,71,0.58,2,2,0,2,2647,4601,603,3116,71,71,0,71,0.25,1.10,0.29,0.42
2013-09-18 11:20:00,2,3027,71,0.57,2,2,0,2,2502,3854,366,2955,71,71,0,71,0.25,0.95,0.21,0.50
2013-09-18 11:30:00,2,3008,71,0.32,2,2,0,2,2339,4413,686,2756,71,71,0,71,0.15,0.65,0.15,0.28
2013-09-18 11:40:00,2,4062,70,0.36,2,2,0,2,2443,6502,1426,3779,67,71,2,71,0.15,0.75,0.18,0.35
2013-09-18 11:50:00,2,8694,67,0.36,2,2,0,2,4089,14538,3777,8659,67,67,0,67,0.05,0.70,0.20,0.30
2013-09-18 12:00:00,2,4583,73,0.86,2,2,0,2,1414,17989,4708,2641,67,77,4,71,0.10,2.10,0.78,0.60
2013-09-18 12:10:00,2,9172,43,0.06,2,2,0,2,3844,20693,5445,8277,0,71,35,71,0.00,0.25,0.08,0.00
2013-09-18 12:20:00,2,7114,48,0.20,2,2,0,2,2649,17481,4146,6141,0,77,27,54,0.00,0.45,0.13,0.23
2013-09-18 12:30:00,2,3858,75,0.82,2,2,0,2,1285,8153,2130,4488,71,77,3,77,0.10,2.10,0.83,0.30
2013-09-18 12:40:00,2,2948,71,1.16,2,2,0,2,1584,7475,2054,1888,71,71,0,71,0.05,2.45,0.77,1.18
2013-09-18 12:50:00,2,9220,64,0.27,2,2,0,2,2836,13980,3341,8867,0,71,21,71,0.00,1.35,0.41,0.05
2013-09-18 13:00:00,2,16435,75,0.01,2,2,0,2,4757,31320,9510,16540,71,77,3,77,0.00,0.05,0.02,0.00
2013-09-18 13:10:00,2,7384,76,0.03,2,2,0,2,5001,11901,1882,6788,71,77,2,77,0.00,0.15,0.05,0.00
2013-09-18 13:20:00,2,4750,77,0.11,2,2,0,2,2774,7420,1339,4494,77,77,0,77,0.05,0.25,0.07,0.10
2013-09-18 13:30:00,2,8030,75,0.07,2,2,0,2,3763,13106,3430,7060,71,77,3,77,0.00,0.25,0.07,0.05
2013-09-18 13:40:00,2,6302,76,0.03,2,2,0,2,3227,10250,2286,6042,71,77,2,77,0.00,0.10,0.03,0.03
2013-09-18 13:50:00,2,6186,73,0.15,2,2,0,2,2578,9763,2823,6304,71,77,3,71,0.00,0.45,0.14,0.12
2013-09-18 14:00:00,2,4514,71,0.43,2,2,0,2,3412,5812,704,4484,71,71,0,71,0.20,0.60,0.11,0.47
2013-09-18 14:10:00,2,4612,71,0.39,2,2,0,2,3484,6384,943,4326,71,71,0,71,0.10,0.70,0.17,0.38
2013-09-18 14:20:00,2,5183,71,0.29,2,2,0,2,3017,7803,1409,5307,71,71,0,71,0.10,0.85,0.21,0.25
2013-09-18 14:30:00,2,5551,71,0.17,2,2,0,2,4157,6276,651,5632,71,71,0,71,0.05,0.30,0.07,0.15
2013-09-18 14:40:00,2,6118,71,0.31,2,2,0,2,3642,10110,2281,5836,71,71,0,71,0.05,0.60,0.16,0.33
2013-09-18 14:50:00,2,6032,71,0.30,2,2,0,2,3281,7928,1515,6149,71,71,0,71,0.05,0.80,0.23,0.23
2013-09-18 15:00:00,2,4373,71,0.51,2,2,0,2,3476,6029,818,4163,71,71,0,71,0.20,0.85,0.23,0.50
2013-09-18 15:10:00,2,4602,71,0.72,2,2,0,2,2895,6293,1229,4903,71,71,0,71,0.20,1.80,0.56,0.50
2013-09-18 15:20:00,2,4466,71,0.64,2,2,0,2,3280,6131,775,4492,71,71,0,71,0.35,1.10,0.24,0.57
2013-09-18 15:30:00,2,5136,71,0.25,2,2,0,2,4141,6158,689,5086,71,71,0,71,0.15,0.55,0.12,0.20
2013-09-18 15:40:00,2,5709,72,0.20,2,2,0,2,3470,8347,1334,5650,71,77,2,71,0.05,0.55,0.14,0.17
2013-09-18 15:50:00,2,6330,75,0.14,2,2,0,2,5129,7632,844,6084,71,77,3,77,0.10,0.25,0.05,0.10
2013-09-18 16:00:00,2,5547,72,0.22,2,2,0,2,4427,7153,756,5508,71,77,2,71,0.10,0.35,0.08,0.25
2013-09-18 16:10:00,2,5598,71,0.23,2,2,0,2,3613,9711,1727,5040,71,71,0,71,0.05,0.45,0.12,0.23
2013-09-18 16:20:00,2,5906,71,0.16,2,2,0,2,3409,8796,1979,5596,71,71,0,71,0.05,0.45,0.12,0.15
2013-09-18 16:30:00,2,3741,71,0.35,2,2,0,2,1953,4750,849,3541,71,71,0,71,0.15,0.70,0.16,0.35
2013-09-18 16:40:00,2,1629,71,1.26,2,2,0,2,985,2631,434,1568,71,71,0,71,0.45,3.95,1.01,0.80
2013-09-18 16:50:00,2,937,72,3.74,2,2,0,2,752,1196,146,944,71,72,0,72,2.55,5.35,0.83,3.55
2013-09-18 17:00:00,2,1244,71,3.25,2,2,0,2,902,2277,375,1195,71,71,0,71,2.05,5.20,1.09,2.88
2013-09-18 17:10:00,2,1534,71,2.50,2,2,0,2,951,2612,539,1428,71,71,0,71,0.75,4.30,0.98,2.65
2013-09-18 17:20:00,2,1135,72,3.86,2,2,0,2,706,1912,434,918,71,72,0,72,1.25,6.15,1.46,4.12
2013-09-18 17:30:00,2,2275,71,2.11,2,2,0,2,650,4158,1086,1922,71,71,0,71,1.15,5.55,1.28,1.65
2013-09-18 17:40:00,2,1043,72,4.48,2,2,0,2,450,2115,510,810,71,72,0,72,1.70,8.05,2.10,3.97
2013-09-18 17:50:00,2,1258,71,3.04,2,2,0,2,707,1642,281,1260,71,71,0,71,1.15,5.55,1.27,3.03
2013-09-18 18:00:00,2,3278,71,1.27,2,2,0,2,1477,6555,1509,3119,71,71,0,71,0.70,2.30,0.50,1.10
2013-09-18 18:10:00,2,9960,51,0.29,2,2,0,2,2716,24158,7446,7394,0,71,28,71,0.00,2.30,0.67,0.08
2013-09-18 18:20:00,2,4240,71,0.26,2,2,0,2,2442,7408,1541,3926,71,71,0,71,0.10,1.00,0.26,0.15
2013-09-18 18:30:00,2,2336,71,1.85,2,2,0,2,1029,5301,1509,1496,71,71,0,71,0.10,4.20,1.49,2.08
2013-09-18 18:40:00,2,1368,71,2.50,2,2,0,2,764,1931,386,1446,71,71,0,71,0.60,5.40,1.48,1.95
2013-09-18 18:50:00,2,8725,59,0.77,2,2,0,2,4102,11269,2319,9486,41,71,15,71,0.15,1.70,0.47,0.70
2013-09-18 19:00:00,2,15929,46,0.35,2,2,0,2,8935,26132,5528,14764,41,67,10,41,0.00,0.75,0.21,0.35
2013-09-18 19:10:00,2,10371,71,0.15,2,2,0,2,6477,15734,2904,9736,67,77,5,67,0.05,0.30,0.10,0.10
2013-09-18 19:20:00,2,27080,76,0.04,2,2,0,2,15650,37624,6714,27955,71,77,2,77,0.00,0.10,0.04,0.05
2013-09-18 19:30:00,2,6801,72,0.13,2,2,0,2,4085,10491,2073,6215,71,77,2,71,0.05,0.30,0.08,0.10
2013-09-18 19:40:00,2,5616,76,0.11,2,2,0,2,3483,9487,1810,5304,71,77,2,77,0.05,0.25,0.07,0.10
2013-09-18 19:50:00,2,2856,73,0.24,2,2,0,2,2171,3806,462,2890,71,77,3,71,0.15,0.35,0.06,0.25
2013-09-18 20:00:00,2,3310,77,0.24,2,2,0,2,2239,4524,744,3320,77,77,0,77,0.10,0.40,0.09,0.23
2013-09-18 20:10:00,2,3318,76,0.24,2,2,0,2,1837,6196,1209,3108,71,77,2,77,0.05,1.20,0.33,0.12
2013-09-18 20:20:00,2,4185,71,0.20,2,2,0,2,1939,7458,1572,4092,71,71,0,71,0.05,1.10,0.31,0.10
2013-09-18 20:30:00,2,4008,71,0.18,2,2,0,2,1867,6074,1324,4036,71,71,0,71,0.05,0.70,0.19,0.12
2013-09-18 20:40:00,2,4839,71,0.37,2,2,0,2,1718,7036,1906,5465,71,71,0,71,0.00,1.55,0.54,0.08
2013-09-18 20:50:00,2,6190,73,0.07,2,2,0,2,2833,10583,2218,6102,71,77,3,71,0.00,0.15,0.04,0.05
2013-09-18 21:00:00,2,6194,77,0.04,2,2,0,2,3483,9485,1915,6542,77,77,0,77,0.00,0.10,0.04,0.05
2013-09-18 21:10:00,2,7335,75,0.04,2,2,0,2,2796,14368,3844,6816,71,77,3,77,0.00,0.20,0.06,0.03
2013-09-18 21:20:00,2,10682,71,0.04,2,2,0,2,5792,18280,4182,9497,71,71,0,71,0.00,0.10,0.04,0.03
2013-09-18 21:30:00,2,22105,75,0.01,2,2,0,2,14249,30944,6007,20440,71,77,3,77,0.00,0.05,0.02,0.00
2013-09-18 21:40:00,2,31161,74,0.03,2,2,0,2,25701,40121,4384,30560,71,77,3,74,0.00,0.05,0.03,0.03
2013-09-18 21:50:00,2,36270,74,0.02,2,2,0,2,23256,50000,8262,35220,71,77,3,74,0.00,0.10,0.03,0.00
2013-09-18 22:00:00,2,46432,72,0.02,2,2,0,2,37423,50000,4305,48142,41,77,11,77,0.00,0.05,0.02,0.00
2013-09-18 22:10:00,2,42050,66,0.02,2,2,0,2,32600,50000,6662,42256,41,77,13,71,0.00,0.10,0.03,0.00
2013-09-18 22:20:00,2,46238,75,0.00,2,2,0,2,35095,50000,4809,48860,71,77,3,77,0.00,0.00,0.00,0.00
2013-09-18 22:30:00,2,38593,75,0.01,2,2,0,2,20510,50000,10213,43696,71,77,3,77,0.00,0.05,0.02,0.00
2013-09-18 22:40:00,2,41570,30,0.01,2,2,0,2,28788,50000,5607,42004,0,77,36,0,0.00,0.05,0.02,0.00
2013-09-18 22:50:00,2,32165,44,0.02,2,2,0,2,17130,50000,8756,30400,0,77,36,71,0.00,0.05,0.02,0.00
2013-09-18 23:00:00,2,32209,73,0.03,2,2,0,2,16788,50000,10954,33130,71,77,3,71,0.00,0.10,0.03,0.03
2013-09-18 23:10:00,2,38419,71,0.03,2,2,0,2,23387,48382,8198,37864,71,71,0,71,0.00,0.10,0.03,0.03
2013-09-18 23:20:00,2,45727,38,0.00,2,2,0,2,36579,50000,5350,49224,0,77,38,36,0.00,0.00,0.00,0.00
2013-09-18 23:30:00,2,44796,0,0.00,2,2,0,2,36617,50000,4879,45628,0,0,0,0,0.00,0.00,0.00,0.00
2013-09-18 23:40:00,2,44145,0,0.00,2,2,0,2,35613,50000,3812,44688,0,0,0,0,0.00,0.00,0.00,0.00
2013-09-18 23:50:00,2,49625,0,0.00,2,2,0,2,47430,50000,812,50000,0,0,0,0,0.00,0.00,0.00,0.00
